Annapolis Naval Academy, MD

4:20 PM EDT on March 24, 2017 (GMT -0400)
Annapolis Naval Academy

Weather History for KNAK - February, 2014

Change the Weather History Date:

Thursday, February 20, 2014

  Actual Average (KBWI) Record (KBWI)
Temperature  
Mean Temperature 39 °F -  
Max Temperature 48 °F 47 °F 76 °F (1930)
Min Temperature 30 °F 29 °F 1 °F (2015)
Degree Days  
Heating Degree Days 26    
Moisture  
Dew Point 32 °F    
Average Humidity 76    
Maximum Humidity 96    
Minimum Humidity 46    
Precipitation  
Precipitation 0.00 in - - ()
Sea Level Pressure  
Sea Level Pressure 30.15 in    
Wind  
Wind Speed 4 mph (SSE)    
Max Wind Speed 14 mph    
Max Gust Speed 22 mph    
Visibility 10 miles    
Events      
Averages and records for this station are not official NWS values.
T = Trace of Precipitation, MM = Missing Value Source: NWS Daily Summary

Daily Weather History Graph

Daily Weather History Graph

Search for Another Location

Airport or City:

Trip Planner

Search our weather history database for the weather conditions in past years. The results will help you decide how hot, cold, wet, or windy it might be!

Date:

Astronomy

Feb. 20, 2014 Rise Set
Actual Time 6:50 AM EST 5:48 PM EST
Civil Twilight 6:23 AM EST 6:16 PM EST
Nautical Twilight 5:52 AM EST 6:47 PM EST
Astronomical Twilight 5:21 AM EST 7:18 PM EST
Moon 11:37 PM EST (2/20) 9:35 AM EST (2/20)
Length of Visible Light 11h 52m
Length of Day
10h 57m
Waning Gibbous, 71% of the Moon is Illuminated
Feb 20
Waning Gibbous
Feb 22
Last Quarter
Mar 1
New
Mar 8
First Quarter
Mar 16
Full

Hourly Weather History & Observations

Time (EST) Temp. Windchill Dew Point Humidity Pressure Visibility Wind Dir Wind Speed Gust Speed Precip Events Conditions
12:54 AM 39.0 °F 36.8 °F 30.9 °F 73% 30.18 in 10.0 mi South 3.5 mph - N/A   Clear
1:54 AM 36.0 °F - 32.0 °F 86% 30.19 in 10.0 mi Calm Calm - N/A   Clear
2:54 AM 34.0 °F - 30.9 °F 89% 30.19 in 10.0 mi Calm Calm - N/A   Clear
3:54 AM 33.1 °F - 30.9 °F 92% 30.19 in 10.0 mi Calm Calm - N/A   Clear
4:54 AM 33.1 °F - 30.0 °F 89% 30.20 in 10.0 mi Calm Calm - N/A   Clear
5:54 AM 32.0 °F 28.7 °F 30.9 °F 96% 30.25 in 10.0 mi NNW 3.5 mph - N/A   Clear
6:54 AM 30.9 °F - 28.9 °F 92% 30.26 in 10.0 mi Calm Calm - N/A   Clear
7:54 AM 33.1 °F - 30.9 °F 92% 30.27 in 9.0 mi Calm Calm - N/A   Clear
8:54 AM 37.0 °F 34.5 °F 32.0 °F 82% 30.27 in 10.0 mi SSE 3.5 mph - N/A   Clear
9:54 AM 39.9 °F 35.1 °F 32.0 °F 73% 30.26 in 10.0 mi SSE 6.9 mph - N/A   Clear
12:54 PM 42.1 °F 35.7 °F 32.0 °F 67% 30.19 in 10.0 mi SE 11.5 mph - N/A   Clear
1:54 PM 48.0 °F - 28.0 °F 46% 30.16 in 10.0 mi South 13.8 mph 21.9 mph N/A   Scattered Clouds
2:54 PM 46.9 °F - 27.0 °F 46% 30.14 in 10.0 mi South 12.7 mph - N/A   Overcast
3:54 PM 46.0 °F 41.0 °F 30.0 °F 54% 30.12 in 10.0 mi South 10.4 mph - N/A   Overcast
4:54 PM 46.9 °F - 33.1 °F 59% 30.09 in 10.0 mi SSE 9.2 mph - N/A   Mostly Cloudy
5:54 PM 46.0 °F 41.9 °F 34.0 °F 63% 30.09 in 10.0 mi South 8.1 mph - N/A   Scattered Clouds
6:54 PM 46.0 °F 42.5 °F 35.1 °F 66% 30.08 in 10.0 mi South 6.9 mph - N/A   Clear
7:54 PM 46.0 °F 43.9 °F 35.1 °F 66% 30.06 in 10.0 mi South 4.6 mph - N/A   Clear
8:54 PM 42.1 °F - 36.0 °F 79% 30.05 in 10.0 mi Calm Calm - N/A   Clear
9:54 PM 37.9 °F 35.5 °F 36.0 °F 93% 30.02 in 10.0 mi SE 3.5 mph - N/A   Clear
10:54 PM 39.0 °F 36.8 °F 36.0 °F 89% 30.00 in 10.0 mi SE 3.5 mph - N/A   Clear
11:54 PM 39.0 °F - 36.0 °F 89% 29.96 in 10.0 mi Calm Calm - N/A   Clear